�������l�o���
Date,Time,MP-1(��Sv/h),MP-2(��Sv/h),MP-3(��Sv/h),MP-4(��Sv/h),MP-5(��Sv/h),MP-6(��Sv/h),MP-7(��Sv/h),MP-8(��Sv/h),����,����(m/s),���J
2021/04/18,00:00,0.598,0.869,0.564,1.074,0.757,0.365,0.629,0.593,��,9.8,�L
2021/04/18,00:10,0.598,0.870,0.566,1.074,0.755,0.366,0.631,0.592,��쓌,10.9,�L
2021/04/18,00:20,0.597,0.871,0.566,1.074,0.755,0.367,0.631,0.593,��쓌,9.7,�L
2021/04/18,00:30,0.598,0.871,0.565,1.075,0.756,0.367,0.631,0.593,��쓌,10.9,�L
2021/04/18,00:40,0.604,0.873,0.567,1.078,0.759,0.367,0.631,0.593,��쓌,10.8,�L
2021/04/18,00:50,0.600,0.868,0.565,1.071,0.752,0.365,0.630,0.593,�쓌,13.5,�L
2021/04/18,01:00,0.599,0.868,0.564,1.071,0.751,0.366,0.630,0.593,��쓌,12.7,�L
2021/04/18,01:10,0.599,0.867,0.566,1.070,0.749,0.367,0.629,0.593,��쓌,11.3,�L
2021/04/18,01:20,0.598,0.865,0.564,1.067,0.744,0.366,0.628,0.590,��쓌,12.4,�L
2021/04/18,01:30,0.596,0.863,0.564,1.065,0.742,0.365,0.628,0.591,��쓌,9.4,�L
2021/04/18,01:40,0.594,0.860,0.562,1.061,0.739,0.365,0.625,0.589,-,CALM,�L
2021/04/18,01:50,0.591,0.855,0.560,1.053,0.731,0.362,0.624,0.587,��,9.1,�L
2021/04/18,02:00,0.588,0.849,0.557,1.047,0.727,0.364,0.621,0.584,��쓌,11.6,�L
2021/04/18,02:10,0.589,0.851,0.559,1.048,0.728,0.362,0.622,0.582,��쓌,7.6,�L
2021/04/18,02:20,0.588,0.851,0.559,1.047,0.725,0.363,0.623,0.584,��,4.6,�L
2021/04/18,02:30,0.590,0.851,0.558,1.046,0.726,0.363,0.623,0.582,��쐼,4.9,�L
2021/04/18,02:40,0.587,0.852,0.555,1.043,0.722,0.361,0.620,0.580,�쓌,6.4,�L
2021/04/18,02:50,0.584,0.848,0.558,1.038,0.718,0.360,0.619,0.580,�k�k��,1.2,�L
2021/04/18,03:00,0.591,0.855,0.560,1.046,0.722,0.365,0.623,0.584,�k��,3.7,�L
2021/04/18,03:10,0.594,0.864,0.562,1.054,0.727,0.364,0.626,0.586,�k�k��,2.9,��
2021/04/18,03:20,0.600,0.868,0.562,1.058,0.733,0.365,0.626,0.588,���k��,7.1,��
2021/04/18,03:30,0.601,0.870,0.564,1.063,0.733,0.366,0.626,0.590,���k��,7.9,��
2021/04/18,03:40,0.602,0.870,0.566,1.064,0.734,0.367,0.629,0.591,���k��,7.4,��
2021/04/18,03:50,0.602,0.874,0.564,1.067,0.738,0.369,0.631,0.592,���k��,7.5,��
2021/04/18,04:00,0.604,0.872,0.566,1.072,0.738,0.367,0.629,0.594,���k��,9.3,��
2021/04/18,04:10,0.604,0.877,0.564,1.073,0.741,0.368,0.632,0.595,���k��,8.6,��
2021/04/18,04:20,0.604,0.877,0.565,1.074,0.740,0.369,0.630,0.597,���k��,7.0,��
2021/04/18,04:30,0.604,0.878,0.565,1.074,0.742,0.367,0.633,0.597,���k��,6.9,��
2021/04/18,04:40,0.604,0.878,0.564,1.078,0.741,0.367,0.632,0.596,���k��,6.7,��
2021/04/18,04:50,0.604,0.879,0.567,1.080,0.741,0.368,0.634,0.598,���k��,5.2,��
2021/04/18,05:00,0.602,0.878,0.566,1.080,0.743,0.367,0.634,0.598,���k��,4.6,��
2021/04/18,05:10,0.606,0.880,0.566,1.082,0.743,0.364,0.634,0.597,�k��,6.4,��
2021/04/18,05:20,0.605,0.879,0.566,1.079,0.745,0.365,0.635,0.597,���k��,9.6,��
2021/04/18,05:30,0.605,0.880,0.565,1.082,0.743,0.365,0.636,0.597,���k��,8.7,��
2021/04/18,05:40,0.605,0.879,0.566,1.084,0.744,0.367,0.638,0.598,��,7.4,��
2021/04/18,05:50,0.606,0.879,0.568,1.084,0.745,0.366,0.637,0.598,��,9.3,��
2021/04/18,06:00,0.607,0.880,0.568,1.085,0.746,0.365,0.637,0.597,��,10.0,��
2021/04/18,06:10,0.605,0.884,0.567,1.088,0.747,0.367,0.636,0.600,���k��,10.0,��
2021/04/18,06:20,0.607,0.881,0.567,1.087,0.747,0.366,0.635,0.600,��,7.9,��
2021/04/18,06:30,0.607,0.883,0.569,1.086,0.748,0.366,0.636,0.598,���k��,6.3,��
2021/04/18,06:40,0.608,0.884,0.568,1.089,0.748,0.365,0.637,0.598,�쐼,2.0,��
2021/04/18,06:50,0.608,0.884,0.566,1.087,0.751,0.365,0.638,0.598,��,5.4,��
2021/04/18,07:00,0.609,0.882,0.570,1.090,0.751,0.364,0.639,0.599,��,4.9,��
2021/04/18,07:10,0.608,0.884,0.569,1.092,0.750,0.366,0.637,0.600,��,4.0,��
2021/04/18,07:20,0.609,0.886,0.570,1.092,0.750,0.365,0.638,0.600,��,4.3,��
2021/04/18,07:30,0.609,0.885,0.570,1.092,0.751,0.365,0.639,0.600,�쐼,4.6,��
2021/04/18,07:40,0.609,0.885,0.570,1.093,0.753,0.363,0.639,0.601,���쐼,6.0,��
2021/04/18,07:50,0.609,0.885,0.571,1.092,0.752,0.364,0.638,0.602,���쐼,7.1,��
2021/04/18,08:00,0.611,0.885,0.571,1.095,0.753,0.365,0.638,0.601,�쐼,5.1,��
2021/04/18,08:10,0.609,0.886,0.569,1.095,0.754,0.365,0.638,0.601,�쐼,6.7,��
2021/04/18,08:20,0.611,0.886,0.574,1.097,0.756,0.366,0.637,0.601,���쐼,7.8,��
2021/04/18,08:30,0.611,0.889,0.571,1.095,0.756,0.366,0.639,0.602,���쐼,7.4,��
2021/04/18,08:40,0.613,0.890,0.574,1.098,0.757,0.367,0.638,0.601,��,5.9,��
2021/04/18,08:50,0.611,0.890,0.571,1.098,0.759,0.367,0.640,0.599,��,5.3,��
2021/04/18,09:00,0.612,0.891,0.571,1.097,0.757,0.367,0.640,0.601,��,5.8,��
2021/04/18,09:10,0.611,0.891,0.570,1.098,0.755,0.367,0.638,0.600,���k��,6.4,��
2021/04/18,09:20,0.611,0.892,0.571,1.100,0.757,0.367,0.639,0.600,��,3.7,��
2021/04/18,09:30,0.612,0.893,0.573,1.100,0.756,0.365,0.641,0.601,���k��,8.2,��
2021/04/18,09:40,0.613,0.894,0.573,1.099,0.759,0.368,0.641,0.600,��,8.5,��
2021/04/18,09:50,0.613,0.894,0.574,1.103,0.760,0.368,0.640,0.600,��,8.9,��
2021/04/18,10:00,0.614,0.895,0.573,1.101,0.759,0.367,0.641,0.600,���k��,8.9,��
2021/04/18,10:10,0.613,0.896,0.573,1.101,0.761,0.368,0.641,0.601,��,7.0,��
2021/04/18,10:20,0.614,0.895,0.573,1.103,0.761,0.368,0.640,0.601,��,7.3,��
2021/04/18,10:30,0.613,0.896,0.573,1.101,0.762,0.367,0.642,0.602,��,7.7,��
2021/04/18,10:40,0.616,0.898,0.574,1.102,0.762,0.368,0.642,0.602,��,7.4,��
2021/04/18,10:50,0.616,0.899,0.574,1.103,0.764,0.368,0.642,0.601,��,7.0,��
2021/04/18,11:00,0.615,0.897,0.573,1.104,0.763,0.368,0.640,0.602,��,11.1,��
2021/04/18,11:10,0.617,0.897,0.574,1.106,0.764,0.368,0.642,0.602,���쐼,7.3,��
2021/04/18,11:20,0.616,0.902,0.574,1.104,0.764,0.370,0.642,0.601,���쐼,10.0,��
2021/04/18,11:30,0.617,0.902,0.575,1.107,0.765,0.369,0.642,0.603,��,10.8,��
2021/04/18,11:40,0.616,0.902,0.575,1.105,0.765,0.370,0.643,0.601,��,13.8,��
2021/04/18,11:50,0.618,0.900,0.575,1.102,0.766,0.369,0.642,0.603,��,12.0,��
2021/04/18,12:00,0.618,0.901,0.575,1.105,0.767,0.369,0.645,0.602,���쐼,8.7,��
2021/04/18,12:10,0.617,0.900,0.576,1.104,0.769,0.369,0.645,0.601,���쐼,8.1,��
2021/04/18,12:20,0.618,0.902,0.577,1.104,0.766,0.369,0.642,0.603,��,8.8,��
2021/04/18,12:30,0.617,0.901,0.576,1.106,0.767,0.370,0.644,0.602,��,8.8,��
2021/04/18,12:40,0.619,0.901,0.575,1.108,0.769,0.370,0.644,0.602,��,12.5,��
2021/04/18,12:50,0.620,0.904,0.575,1.107,0.770,0.370,0.645,0.603,���쐼,8.8,��
2021/04/18,13:00,0.619,0.903,0.577,1.110,0.771,0.370,0.645,0.603,���쐼,10.6,��
2021/04/18,13:10,0.619,0.903,0.577,1.110,0.768,0.370,0.644,0.603,��,12.4,��
2021/04/18,13:20,0.620,0.906,0.578,1.110,0.771,0.371,0.644,0.604,���쐼,12.7,��
2021/04/18,13:30,0.621,0.904,0.578,1.110,0.772,0.370,0.643,0.601,���쐼,14.7,��
2021/04/18,13:40,0.620,0.906,0.578,1.108,0.773,0.371,0.645,0.605,���쐼,15.2,��
2021/04/18,13:50,0.621,0.905,0.578,1.111,0.775,0.370,0.646,0.603,��,13.1,��
2021/04/18,14:00,0.620,0.905,0.578,1.109,0.774,0.371,0.645,0.605,��,14.9,��
2021/04/18,14:10,0.621,0.905,0.578,1.115,0.772,0.372,0.645,0.604,��,13.6,��
2021/04/18,14:20,0.620,0.909,0.578,1.111,0.775,0.371,0.645,0.604,��,14.4,��
2021/04/18,14:30,0.620,0.907,0.578,1.113,0.774,0.372,0.645,0.603,��,14.4,��
2021/04/18,14:40,0.622,0.909,0.579,1.113,0.774,0.373,0.645,0.606,��,11.3,��
2021/04/18,14:50,0.622,0.906,0.580,1.111,0.776,0.372,0.646,0.604,��,14.7,��
2021/04/18,15:00,0.623,0.908,0.580,1.113,0.774,0.371,0.646,0.605,���쐼,14.7,��
2021/04/18,15:10,0.623,0.908,0.579,1.115,0.776,0.373,0.646,0.605,���쐼,13.1,��
2021/04/18,15:20,0.622,0.907,0.581,1.115,0.777,0.372,0.645,0.604,���쐼,18.0,��
2021/04/18,15:30,0.622,0.907,0.580,1.114,0.777,0.373,0.646,0.605,�쐼,13.0,��
2021/04/18,15:40,0.622,0.908,0.578,1.114,0.777,0.371,0.647,0.605,���쐼,13.8,��
2021/04/18,15:50,0.621,0.907,0.580,1.115,0.777,0.373,0.646,0.604,���쐼,14.7,��
2021/04/18,16:00,0.624,0.910,0.581,1.115,0.776,0.373,0.646,0.603,�쐼,15.2,��
2021/04/18,16:10,0.621,0.906,0.580,1.117,0.777,0.372,0.647,0.603,���쐼,13.1,��
2021/04/18,16:20,0.622,0.908,0.580,1.116,0.778,0.373,0.646,0.605,�쐼,8.3,��
2021/04/18,16:30,0.621,0.909,0.578,1.115,0.776,0.372,0.646,0.605,���쐼,10.7,��
2021/04/18,16:40,0.621,0.908,0.578,1.117,0.777,0.374,0.645,0.604,���쐼,9.9,��
2021/04/18,16:50,0.621,0.908,0.579,1.117,0.777,0.373,0.646,0.605,���쐼,7.1,��
2021/04/18,17:00,0.622,0.909,0.579,1.114,0.780,0.375,0.646,0.605,���쐼,5.5,��
2021/04/18,17:10,0.621,0.911,0.579,1.116,0.778,0.374,0.645,0.605,���쐼,7.4,��
2021/04/18,17:20,0.621,0.913,0.578,1.117,0.778,0.376,0.646,0.605,��쐼,6.1,��
2021/04/18,17:30,0.623,0.913,0.579,1.117,0.780,0.374,0.646,0.606,���쐼,6.3,��
2021/04/18,17:40,0.623,0.912,0.581,1.119,0.778,0.374,0.646,0.608,�쐼,8.9,��
2021/04/18,17:50,0.624,0.911,0.580,1.119,0.779,0.374,0.643,0.607,��쐼,5.8,��
2021/04/18,18:00,0.624,0.913,0.580,1.120,0.780,0.374,0.644,0.607,��,7.0,��
2021/04/18,18:10,0.624,0.915,0.581,1.120,0.779,0.374,0.644,0.607,�쐼,4.5,��
2021/04/18,18:20,0.624,0.913,0.579,1.121,0.780,0.373,0.646,0.609,�쐼,4.9,��
2021/04/18,18:30,0.624,0.913,0.582,1.119,0.782,0.373,0.645,0.607,��쐼,6.4,��
2021/04/18,18:40,0.623,0.914,0.582,1.120,0.781,0.373,0.645,0.608,��쐼,4.2,��
2021/04/18,18:50,0.624,0.914,0.582,1.119,0.782,0.371,0.646,0.608,��쐼,6.2,��
2021/04/18,19:00,0.620,0.912,0.582,1.122,0.782,0.372,0.644,0.607,���쐼,7.8,��
2021/04/18,19:10,0.622,0.913,0.582,1.121,0.783,0.374,0.646,0.608,���쐼,10.2,��
2021/04/18,19:20,0.620,0.914,0.581,1.122,0.784,0.372,0.646,0.606,�쐼,9.1,��
2021/04/18,19:30,0.624,0.916,0.581,1.121,0.782,0.373,0.646,0.607,�쐼,8.8,��
2021/04/18,19:40,0.624,0.915,0.583,1.121,0.783,0.371,0.646,0.608,�쐼,8.4,��
2021/04/18,19:50,0.623,0.915,0.583,1.122,0.784,0.373,0.645,0.607,�쐼,7.3,��
2021/04/18,20:00,0.623,0.914,0.581,1.121,0.785,0.373,0.647,0.607,�쐼,7.8,��
2021/04/18,20:10,0.623,0.912,0.582,1.122,0.784,0.371,0.646,0.609,�쐼,7.3,��
2021/04/18,20:20,0.624,0.914,0.582,1.121,0.786,0.371,0.645,0.608,�쐼,7.5,��
2021/04/18,20:30,0.623,0.913,0.583,1.121,0.783,0.373,0.645,0.608,�쐼,8.9,��
2021/04/18,20:40,0.624,0.913,0.583,1.123,0.784,0.372,0.644,0.608,���쐼,9.4,��
2021/04/18,20:50,0.624,0.913,0.583,1.124,0.782,0.372,0.646,0.608,�쐼,7.5,��
2021/04/18,21:00,0.624,0.916,0.581,1.123,0.785,0.374,0.646,0.606,�쐼,9.3,��
2021/04/18,21:10,0.623,0.913,0.581,1.121,0.785,0.373,0.645,0.607,�쐼,6.7,��
2021/04/18,21:20,0.625,0.913,0.582,1.121,0.785,0.372,0.645,0.607,�쐼,7.3,��
2021/04/18,21:30,0.625,0.914,0.581,1.124,0.784,0.372,0.646,0.607,�쐼,8.7,��
2021/04/18,21:40,0.625,0.914,0.583,1.122,0.785,0.373,0.645,0.608,���쐼,10.4,��
2021/04/18,21:50,0.624,0.914,0.584,1.125,0.783,0.372,0.647,0.608,���쐼,9.7,��
2021/04/18,22:00,0.625,0.911,0.581,1.122,0.784,0.374,0.645,0.608,�쐼,8.5,��
2021/04/18,22:10,0.621,0.912,0.580,1.122,0.786,0.374,0.644,0.608,���쐼,7.8,��
2021/04/18,22:20,0.625,0.911,0.581,1.125,0.785,0.373,0.646,0.607,���쐼,8.8,��
2021/04/18,22:30,0.624,0.914,0.583,1.124,0.783,0.372,0.646,0.607,���쐼,10.5,��
2021/04/18,22:40,0.623,0.914,0.585,1.121,0.787,0.373,0.647,0.608,�쐼,10.5,��
2021/04/18,22:50,0.624,0.914,0.582,1.123,0.785,0.373,0.646,0.608,���쐼,12.7,��
2021/04/18,23:00,0.625,0.914,0.581,1.124,0.784,0.374,0.646,0.609,���쐼,13.3,��
2021/04/18,23:10,0.625,0.914,0.583,1.123,0.785,0.373,0.647,0.607,���쐼,10.7,��
2021/04/18,23:20,0.626,0.914,0.582,1.124,0.787,0.374,0.647,0.608,�쐼,9.5,��
2021/04/18,23:30,0.623,0.915,0.581,1.123,0.785,0.372,0.647,0.608,���쐼,9.1,��
2021/04/18,23:40,0.626,0.913,0.581,1.123,0.786,0.372,0.645,0.608,���쐼,9.8,��
2021/04/18,23:50,0.624,0.914,0.582,1.125,0.786,0.372,0.647,0.607,���쐼,8.5,��
